Back to catalog

CZ-4 DEB

AliveSSO
NORAD 26323·DEBRIS·🇨🇳 China

Launched Oct 14, 1999 from Taiyuan Satellite Launch Center

Loading…

Next Passes (next 24 hours)

TLE

FreshSource: Space-Track

Epoch: Sep 14, 2026, 10:44 UTC

1 26323U 99057HG  26257.44771765  .00001470  00000-0  31353-3 0  9999
2 26323  98.4258 326.2062 0067324 136.2140 236.8045 14.59058565396301

Track CZ-4 DEB in real time with AllMySat

Download on the App Store